Regional Weather Roundup
Issued by NWS

Home | Current Version | Previous Version | Text Only | Print | Product List | Glossary On
Versions: 1 2 3 4 5 6 7 8 9 10 11 12 13 14 15 16 17 18 19 20 21 22 23 24 25 26 27 28 29 30 31 32 33 34 35 36 37 38 39 40 41 42 43 44 45 46 47 48 49 50
000
ASUS45 KBOI 230310
RWRID

IDAHO REGIONAL WEATHER ROUNDUP
NATIONAL WEATHER SERVICE BOISE ID
900 PM MDT TUE AUG 22 2017

NOTE: "FAIR" INDICATES FEW OR NO CLOUDS BELOW 12000 FEET
WITH NO SIGNIFICANT WEATHER AND/OR OBSTRUCTIONS TO VISIBILITY

IDZ012-014-230400-
SOUTHWEST IDAHO


CITY           SKY/WX    TMP DP  RH WIND       PRES   REMARKS
BOISE          CLEAR     82  50  32 S3        29.97R
CALDWELL       CLEAR     80  53  39 CALM      29.95R
MOUNTAIN HOME  PTCLDY    83  41  22 NW8       29.98R
$$

IDZ016-017-230400-
SOUTHCENTRAL IDAHO


CITY           SKY/WX    TMP DP  RH WIND       PRES   REMARKS
BURLEY         MOCLDY    72  54  53 SW6       30.07R
JEROME         MOCLDY    79  48  33 SE7       30.08R
TWIN FALLS     MOCLDY    79  43  27 S14       30.08S
$$

IDZ019>023-230400-
SOUTHEAST IDAHO


CITY           SKY/WX    TMP DP  RH WIND       PRES   REMARKS
IDAHO FALLS    CLEAR     80  38  22 S7        30.12R
POCATELLO      CLEAR     72  36  26 S9        30.10R
REXBURG        CLEAR     75  36  24 S6        30.12S
$$

IDZ006-010-011-018-031-032-230400-
CENTRAL IDAHO MOUNTAINS


CITY           SKY/WX    TMP DP  RH WIND       PRES   REMARKS
MCCALL         CLEAR     73  42  32 NE3       30.13R
HAILEY         PTCLDY    64  46  52 CALM      30.16R
STANLEY          N/A     61  32  33 S3        30.26R
SALMON         MOCLDY    73  36  25 SE5       30.08R HAZE
CHALLIS        CLOUDY    74  35  24 NW9       30.13R
$$

IDZ002-004-006-007-026-230400-
NORTHERN IDAHO


CITY           SKY/WX    TMP DP  RH WIND       PRES   REMARKS
LEWISTON       CLEAR     86  40  19 W6        29.89R
LOWELL           N/A     71  53  52 CALM      29.93R
COEUR D`ALENE  CLEAR     77  45  32 CALM      29.95F
MULLAN PASS    CLEAR     68  36  30 SW6       30.21S
$$



USA.gov is the U.S. government's official web portal to all federal, state and local government web resources and services.